You are here:
  • Home »
  • Tender »
  • Open Tender Enquiry

Open Tender Enquiry

Sl.No. Enquiry No. Date Due on Short Description
7501 2/ PE182320/8 20/12/2018 28/01/2019 BELT SWAY SWITCH
7502 2/ PE182288/8 20/12/2018 28/01/2019 SS DISC CHECK VALVE
7503 2/ PE182287/8 20/12/2018 28/01/2019 WIDE ANGLE BELT
7504 2/ PE182305/8 20/12/2018 28/01/2019 REGULATING UNIT FOR DIAPHRAGM VALVE
7505 2/ PE182137/8 20/12/2018 28/01/2019 SPARE FOR PA SYSTEM;MAKE:BOSCH
7506 2/ PE182321/8 20/12/2018 28/01/2019 ZERO SPEED SWITCH
7507 2/ PE182333/8 20/12/2018 28/01/2019 SINTEX TANK COVER
7508 2/ PE181668/1 20/12/2018 28/01/2019 NYLON BRAIDED CHAULKING ROPE
7509 2/ PE182326/8 20/12/2018 28/01/2019 SS316 Slip-on Flange of Class:150 as per ANSI B16.5drilling
7510 1- PE181383-1 14.12.2018 18.01.2018 Spares for maintenance of solar light system
7511 2- PE181364-1 03.12.2018 04.01.2019 Horizon electric powered reciprocating air compressor
7512 2- PE181385-1 14.12.2018 11.01.2019 Mosaic & Ceraloc liners
7513 2- PE181386-1 15.12.2018 11.01.2019 Agitator gearbox for neutral filter surge tank
7514 2- PE181399-1 18.12.2018 04.01.2019 Krush more backing compound
7515 3- PE181368-1 06.12.2018 04.01.2019 Screw air compressor spares
7516 1- PE181403-1 19.12.2018 22.01.2019 Proto control make safety switches
7517 1- PE181412-1 19.12.2018 22.01.2019 HT fuses for IPS motor feeders R & M works
7518 1- PE181418-1 19.12.2018 04.01.2019 Chairs for office use
7519 1- PE181432-1 21.12.2018 22.01.2019 Insulation Tapes
7519 2/PE190009/1 04.01.2018 11.02.2019 Hyper Steel Grinding Ball
7520 2- PE181420-1 20.12.2018 08.01.2019 Steel pins with buffer
7521 2- PE181425-1 21.12.2018 25.01.2019 Tyres
7522 2- PE181429-1 21.12.2018 25.01.2019 Optically CLR silicon grease
7523 2- PE181431-1 21.12.2018 25.01.2019 Level Transmitter
7524 3/PE182407/8-1 28.12.2018 31.01.2019 Hose Assy
7525 2/ PE182285/8 27/12/2018 31/01/2019 FOOT VALVE ASSY
7526 2/ PE182315/8 27/12/2018 31/01/2019 ROLLER FOR RETURN IDLER
7527 2/ PE182316/8 27/12/2018 31/01/2019 COMPRESSED NON ASBESTOS JOINTING SHEET
7528 2/ PE182284/8 27/12/2018 31/01/2019 V – GROOVE PULLEY
7529 2/ PE182286/8 27/12/2018 31/01/2019 SPARES FOR KSB PUMP
7530 2/ PE182289/8 27/12/2018 31/01/2019 FOOT VALVE
7531 2/ PE182317/8 27/12/2018 31/01/2019 CAST IRON BALL VALVE
7532 2/ PE181638/1 27/12/2018 31/01/2019 MERCURIC SULPHATE
7533 2/ PE180823/7 27/12/2018 31/01/2019 MICRO-R-SURVEY METER
7534 1- PE181449-1 26.12.2018 29.01.2019 Transformer remote top position indicator
7535 1- PE181452-1 26.12.2018 29.01.2019 Spring charging motor
7536 1- PE181453-1 27.12.2018 25.01.2019 Dogs Feeding
7537 1- PE181454-1 27.12.2018 29.01.2019 Indicating lamps, switches, terminal blocks
7538 1- PE181455-1 27.12.2018 29.01.2019 Aux.Relays
7539 2- PE181439-1 22.12.2018 25.01.2019 DP transmitter for SSR area
7540 2- PE181440-1 22.12.2018 25.01.2019 Belt weigher panel
7541 2- PE181441-1 22.12.2018 29.01.2019 Pressure Gauge
7542 2- PE181458-1 28.12.2018 25.01.2019 Vent control valve
7543 3- PE181428-1 21.12.2018 22.01.2019 Spares for Godrej make fork lift
7544 1/ PE181414/1 02.01.2019 05.02.2019 Napthalene Balls
7545 1/ PE181572/1 02.01.2019 05.02.2019 Fixed & Moving Contacts
7546 1/ PE181577/1 02.01.2019 05.02.2019 Fixed & Moving Contacts
7547 1/ PE181622/1 02.01.2019 05.02.2019 Air Conditioner
7548 1/ PE181696/1 02.01.2019 05.02.2019 Printing Items
7549 1/ PE181698/1 02.01.2019 05.02.2019 Plumber Block
7550 1/ PE181699/1 02.01.2019 05.02.2019 Feed Glass
7551 1/ PE181700/1 02.01.2019 05.02.2019 A.B. Switch
7552 1/ PE181706/1 02.01.2019 05.02.2019 Switch Board
7553 1/ PE181721/1 02.01.2019 05.02.2019 Laser Printer
7554 2- PE181300-8 13/07/2018 16/01/2019 Spare of On/Off Valve of Crane Process flow
7555 1- PE181460-1 30.12.2018 29.01.2019 Spare part kit FM530 SS CPL
7556 1- PE181466-1 30.12.2018 29.01.2019 Grid Resistance type air cooled grid resistance
7557 1- PE181467-1 30.12.2018 29.01.2019 Fan & terminal block for 11 KW NORD make motor
7558 2- PE181459-1 29.12.2018 29.01.2019 GMMCO payloader Spares
7559 3- PE181465-1 30.12.2018 29.01.2019 Variable Frequency drive
7560 1/ PE181704/1 03.01.2019 06.02.2019 Led Bulb
7561 1/ PE181705/1 03.01.2019 06.02.2019 Led Bulb
7562 1/ PE181722/1 03.01.2019 06.02.2019 Tube Light
7563 1/ PE182297/1 03.01.2019 06.02.2019 Rope Ladder
7564 1/ PE182300/1 03.01.2019 06.02.2019 Hose Pipe
7565 1/ PE182302/1 03.01.2019 06.02.2019 Switch Socket
7566 1/ PE182359/1 03.01.2019 06.02.2019 Print Head
7567 1/ PE182385/1 03.01.2019 06.02.2019 Drawing Board
7568 1/ PE182386/1 03.01.2019 06.02.2019 Switch
7569 1/ PE182387/1 03.01.2019 06.02.2019 Spares for Welding Accessories
7570 2/ PE182318/8 27/12/2018 04/02/2019 Fixed IR Bullet Camera, NETWORK VIDEO RECORDER
7571 corrigendum -I 2/ PE181357/1 - 18.01.2019 Perlite base filter aid.
7572 CORRIGENDUM to 2/PE182320/8 20/12/2018 04.02.2019 Belt Sway Switch for Belt Conveyor protection use with terminal box
7573 1- PE181402-1 18.12.2018 22.01.2019 PVC insulated round wire
7575 1- PE181414-1 19.12.2018 18.01.2019 18 W LED
7575 1- PE181415-1 19.12.2018 22.01.2019 EOT Crane Spares
7576 1- PE181434-1 21.12.2018 25.01.2019 REX 521 Numerical relay, make ABB
7577 1- PE190048-1 06.01.2019 12.02.2019 Cyclic Timer with Asymmetric
7578 1- PE190049-1 06.01.2019 12.02.2019 Alan make Annuciator
7579 1- PE190059-1 07.01.2019 15.02.2019 Power Contactor
7580 1- PE190060-1 07.01.2019 15.02.2019 100 Amps switch fuse unit
7581 2- PE181404-1 19.12.2018 18.01.2019 Cationic anionic resigns
7582 2- PE190019-1 04.01.2019 08.02.2019 3-Way On/off plug valve
7583 2- PE190042-1 06.01.2019 12.02.2019 Signal Isolators
7584 2- PE190046-1 06.01.2019 12.02.2019 ELGI Controller/Temperature sensor
7585 2- PE190052-1 06.01.2019 15.02.2019 Drying plant cylinders
7586 2- PE190053-1 06.01.2019 15.02.2019 8 mm & 12 mm PVC pipes
7587 2- PE190054-1 06.01.2019 15.02.2019 DP transmitter (SSR)
7588 Cancellation of 2/PE182292/8 --- --- Rubber diaphragm
7589 1/ PE180725/7 09.01.2019 12.02.2019 Cutter Power
7590 1/ PE180787/7 09.01.2019 12.02.2019 Printer Ribbon Cartridge
7591 1/ PE180807/7 09.01.2019 12.02.2019 Carbon Brush
7592 1/ PE180828/7 09.01.2019 12.02.2019 Nail Wire
7593 1/ PE180830/7 09.01.2019 12.02.2019 Tape
7594 1/ PE181726/1 09.01.2019 12.02.2019 Laptop
7595 1/ PE181730/1 09.01.2019 12.02.2019 Fire Alaram System
7596 1/ PE181750/1 09.01.2019 12.02.2019 36 Watt Pll
7597 1/ PE190006/7 09.01.2019 12.02.2019 LCD Projector
7598 1/ PE190011/1 09.01.2019 12.02.2019 Printing Items
7599 2/ PE181639/1 02/01/2019 07/02/2019 MSRL BEND
7500 2/ PE181691/1 02/01/2019 07/02/2019 CAP BOLT